Weather History for Key West NAF, FL

Change the Weather History Date:

Tuesday, November 13, 2012

  Actual Average Record
Temperature  
Mean Temperature 72 °F -  
Max Temperature 73 °F 79 °F 87 °F (1965)
Min Temperature 71 °F 70 °F 59 °F (1968)
Cooling Degree Days 7    
Growing Degree Days 22 (Base 50)    
Moisture  
Dew Point 67 °F    
Average Humidity 83    
Maximum Humidity 88    
Minimum Humidity 75    
Precipitation  
Precipitation 0.00 in - - ()
Sea Level Pressure  
Sea Level Pressure 30.07 in    
Wind  
Wind Speed 9 mph (NE)    
Max Wind Speed 12 mph    
Max Gust Speed 20 mph    
Visibility 10 miles    
Events      
Averages and records for this station are not official NWS values.
T = Trace of Precipitation, MM = Missing Value Source: NWS Daily Summary

Daily Weather History Graph

Daily Weather History Graph

Search for Another Location

Airport:

Trip Planner

Search our weather history database for the weather conditions in past years. The results will help you decide how hot, cold, wet, or windy it might be!

Date:

Astronomy

Nov. 13, 2012 Rise Set
Actual Time 6:41 AM EST 5:40 PM EST
Civil Twilight 6:17 AM EST 6:04 PM EST
Nautical Twilight 5:50 AM EST 6:31 PM EST
Astronomical Twilight 5:23 AM EST 6:58 PM EST
Moon 6:17 AM EST (11/13) 5:35 PM EST (11/13)
Length of Visible Light 11h 46m
Length of Day
10h 58m
Waning Crescent, 0% of the Moon is Illuminated
Nov 13
Waning Crescent
Nov 13
New
Nov 20
First Quarter
Nov 28
Full
Dec 6
Last Quarter

Hourly Weather History & Observations

Time (EST) Temp. Dew Point Humidity Pressure Visibility Wind Dir Wind Speed Gust Speed Precip Events Conditions
12:53 AM - - N/A% 30.09 in 10.0 mi NNE 8.1 mph - N/A   Overcast
1:53 AM - - N/A% 30.07 in 10.0 mi NNE 10.4 mph - N/A   Clear
2:53 AM - - N/A% 30.05 in 10.0 mi NNE 9.2 mph - N/A   Clear
3:53 AM - - N/A% 30.06 in 10.0 mi NE 9.2 mph - N/A   Clear
4:53 AM - - N/A% 30.05 in 10.0 mi NE 10.4 mph - N/A   Clear
5:53 AM - - N/A% 30.07 in 10.0 mi NNE 11.5 mph - N/A   Clear
6:19 AM 71.6 °F 68.0 °F 88% 30.07 in 10.0 mi NNE 11.5 mph - N/A   Scattered Clouds
6:53 AM 71.6 °F 68.0 °F 88% 30.08 in 10.0 mi NE 9.2 mph - N/A   Scattered Clouds
7:53 AM 71.6 °F 68.0 °F 88% 30.10 in 10.0 mi NE 9.2 mph - N/A   Mostly Cloudy
8:53 AM 71.6 °F 68.0 °F 88% 30.12 in 10.0 mi NE 11.5 mph - N/A   Mostly Cloudy
9:53 AM 71.6 °F 66.9 °F 85% 30.12 in 10.0 mi NE 11.5 mph 19.6 mph N/A   Mostly Cloudy
10:53 AM 73.4 °F 66.9 °F 80% 30.11 in 10.0 mi NNE 10.4 mph 19.6 mph N/A   Mostly Cloudy
11:53 AM 73.4 °F 68.0 °F 83% 30.10 in 10.0 mi NE 8.1 mph - N/A   Mostly Cloudy
12:53 PM 73.4 °F 68.0 °F 83% 30.06 in 10.0 mi NNE 10.4 mph - N/A   Mostly Cloudy
1:53 PM 73.4 °F 69.1 °F 86% 30.04 in 10.0 mi NE 9.2 mph 16.1 mph N/A   Mostly Cloudy
2:53 PM 73.4 °F 64.9 °F 75% 30.04 in 10.0 mi ENE 11.5 mph 18.4 mph N/A   Mostly Cloudy
3:53 PM 73.4 °F 64.9 °F 75% 30.04 in 10.0 mi NE 10.4 mph - N/A   Mostly Cloudy
4:53 PM 71.6 °F 64.0 °F 77% 30.05 in 10.0 mi ENE 6.9 mph - N/A   Mostly Cloudy
5:53 PM 73.4 °F 68.0 °F 83% 30.05 in 10.0 mi NNE 6.9 mph - N/A   Mostly Cloudy
6:53 PM 71.6 °F 68.0 °F 88% 30.05 in 10.0 mi NE 10.4 mph - N/A   Mostly Cloudy
7:53 PM 71.6 °F 66.9 °F 85% 30.06 in 10.0 mi NE 6.9 mph - N/A   Mostly Cloudy
8:53 PM 71.6 °F 66.0 °F 82% 30.07 in 10.0 mi NE 6.9 mph - N/A   Scattered Clouds
9:53 PM 71.6 °F 66.0 °F 82% 30.09 in 10.0 mi NE 6.9 mph - N/A   Scattered Clouds
10:53 PM - - N/A% 30.08 in 10.0 mi NE 5.8 mph - N/A   Clear
11:53 PM - - N/A% 30.07 in 10.0 mi NE 6.9 mph - N/A   Clear